Flag for U.S.A. Weather past 2 weeks in Fort Worth, Texas, U.S.A.

Now
62 °F

Clear.


Feels Like: 62 °F
Forecast: 61 / 82 °F
Wind: No wind

Location: Meacham International Airport

Current Time: Oct 21, 2014 at 6:18:32 AM

Latest Report: Oct 21, 2014 at 5:53 AM


Visibility: 8 mi

Pressure: 30.03 "Hg

Humidity: 86%

Dew point: 58 °F

Location of Fort WorthLocation

Historic Weather in Fort Worth — Graph

°F

Fort Worth temperature yesterday

Maximum temperature yesterday: 82 °F (at 4:53 PM)
Minimum temperature yesterday: 61 °F (at 6:53 AM)
Average temperature yesterday: 71 °F

Past Weeks' High & Low Weather Summary

 TemperatureHumidityPressure
High99 °F (Oct 7, 3:53 PM)93% (Oct 11, 1:53 AM)30.14 "Hg (Oct 11, 1:53 AM)
Low52 °F (Oct 12, 6:53 AM)18% (Oct 16, 4:53 PM)29.57 "Hg (Oct 13, 12:53 AM)
Average72 °F60%29.93 "Hg
* Reported Oct 6 4:53 AM — Oct 21 4:53 AM, Fort Worth, Weather by CustomWeather, © 2014

Note: Actual official high and low records may vary slightly from our data, if they occured in-between our weather recording intervals... More about our weather records

Advertising

Fort Worth weather history for previous 24 hours

 ConditionsComfort  
Time TempWeatherWind HumidityBarometerVisibility
4:53 AM
Oct 21
63 °FClear.No wind84%30.02 "Hg10 mi
3:53 AM63 °FClear.No wind84%30.01 "Hg10 mi
2:53 AM63 °FClear.No wind81%30.01 "Hg7 mi
1:53 AM68 °FClear.3 mph70%30.01 "Hg10 mi
12:53 AM67 °FClear.3 mph71%30.02 "Hg10 mi
11:53 PM
Oct 20
68 °FClear.3 mph73%30.02 "Hg10 mi
10:53 PM70 °FClear.9 mph71%30.03 "Hg10 mi
9:53 PM71 °FClear.7 mph68%30.02 "Hg10 mi
8:53 PM73 °FClear.7 mph62%30.01 "Hg10 mi
7:53 PM76 °FClear.6 mph54%29.99 "Hg10 mi
6:53 PM77 °FSunny.7 mph50%29.98 "Hg10 mi
5:53 PM81 °FSunny.9 mph44%29.98 "Hg10 mi
4:53 PM82 °FPassing clouds.8 mph46%29.98 "Hg10 mi
3:53 PM81 °FPassing clouds.No wind47%29.98 "Hg10 mi
2:53 PM81 °FPassing clouds.No wind49%29.99 "Hg10 mi
1:53 PM80 °FScattered clouds.3 mph51%30.01 "Hg10 mi
12:53 PM79 °FPassing clouds.7 mph56%30.04 "Hg10 mi
11:53 AM76 °FSunny.9 mph62%30.06 "Hg10 mi
10:53 AM72 °FSunny.9 mph66%30.08 "Hg10 mi
9:53 AM68 °FSunny.6 mph70%30.09 "Hg10 mi
8:53 AM64 °FSunny.3 mph81%30.07 "Hg9 mi
7:53 AM62 °FClear.3 mph80%30.06 "Hg8 mi
6:53 AM61 °FClear.No wind83%30.04 "Hg10 mi
Weather by CustomWeather, © 2014

See weather overviewHow to use our weather pages